Home > Weather > Casper > Past weeks

Flag for USA Past Weather in Casper, Wyoming, USA — Yesterday and Last 2 Weeks

Now
72 °F

Sunny.


Feels Like: 77 °F
Forecast: 52 / 83 °F
Wind: 13 mph from Northeast

Location: Natrona County International Airport

Current Time: Jul 28, 2016 at 10:09:01 PM

Latest Report: Jul 28, 2016 at 8:53 PM


Visibility: 10 mi

Pressure: 30.01 "Hg (25.03 "Hg at 1569m altitude)

Humidity: 43%

Dew Point: 48 °F

Location of CasperLocation

Past Weather in Casper — Graph

°F

Casper Temperature Yesterday

Maximum temperature yesterday: 91 °F (at 4:53 PM)
Minimum temperature yesterday: 59 °F (at 5:53 AM)
Average temperature yesterday: 75 °F

High & Low Weather Summary for the Past Weeks

 TemperatureHumidityPressure
High96 °F (Jul 25, 3:53 PM)93% (Jul 17, 4:53 AM)30.25 "Hg (Jul 17, 4:53 AM)
Low44 °F (Jul 14, 5:53 AM)4% (Jul 23, 4:53 PM)29.63 "Hg (Jul 16, 3:53 PM)
Average74 °F38%29.93 "Hg
* Reported Jul 13 8:53 PM — Jul 28 8:53 PM, Casper, Weather by CustomWeather, © 2016

Note: Actual official high and low records may vary slightly from our data, if they occured in-between our weather recording intervals... More about our weather records

Advertising

Casper Weather History for the Previous 24 Hours

Scroll right to see more
 ConditionsComfort  
Time TempWeatherWind HumidityBarometerVisibility
8:53 PM
Thu, Jul 28
72 °FSunny.13 mph43%30.01 "Hg10 mi
7:53 PM76 °FSunny.12 mph35%29.99 "Hg10 mi
6:53 PM79 °FSunny.14 mph30%29.97 "Hg10 mi
5:53 PM82 °FSunny.14 mph27%29.96 "Hg10 mi
4:53 PM82 °FSunny.12 mph27%29.98 "Hg10 mi
3:53 PM82 °FSunny.12 mph27%30.00 "Hg10 mi
2:53 PM80 °FSunny.N/A28%30.01 "Hg10 mi
1:53 PM79 °FSunny.8 mph30%30.01 "Hg10 mi
12:53 PM77 °FSunny.No wind36%30.04 "Hg10 mi
11:53 AM73 °FSunny.9 mph41%30.05 "Hg10 mi
10:53 AM71 °FSunny.10 mph44%30.06 "Hg10 mi
9:53 AM68 °FSunny.13 mph51%30.08 "Hg10 mi
8:53 AM66 °FPartly sunny.13 mph65%30.06 "Hg10 mi
7:53 AM62 °FBroken clouds.12 mph67%30.05 "Hg10 mi
7:01 AM63 °FMore clouds than sun.12 mph78%30.25 "Hg10 mi
6:53 AM63 °FMostly cloudy.12 mph78%30.02 "Hg10 mi
5:53 AM61 °FOvercast.10 mph83%30.03 "Hg10 mi
4:53 AM57 °FPassing clouds.9 mph93%30.00 "Hg10 mi
3:53 AM56 °FClear.3 mph90%29.97 "Hg10 mi
2:53 AM59 °FClear.6 mph81%29.96 "Hg10 mi
1:53 AM63 °FClear.6 mph73%29.97 "Hg10 mi
12:53 AM61 °FClear.5 mph78%29.97 "Hg10 mi
11:53 PM
Wed, Jul 27
67 °FClear.9 mph63%29.94 "Hg10 mi
10:53 PM69 °FClear.18 mph57%29.94 "Hg10 mi
Weather by CustomWeather, © 2016

See weather overviewHow to use our weather pages